YV1419 SVVG-SVVL

Flight info

Callsign YV1419
Flight time 0h 43m
Altitude 9000
Route EVG W41 ERIXO W7 VRA
Aircraft C208/L-SDC/C

Departure

Time 2026-04-26 00:39
Airport Juan Pablo Pérez Alfonso Airport (SVVG)

Arrival

Time 2026-04-26 01:22
Airport Dr. Antonio Nicolás Briceño Airport (SVVL)
Time Latitude Longitude Altitude Speed Heading
2026-04-26 00:30 8.62323 -71.66262 278 ft 0 kts 173°
2026-04-26 00:35 8.62319 -71.66263 278 ft 2 kts 209°
2026-04-26 00:35 8.62343 -71.66268 278 ft 8 kts 10°
2026-04-26 00:35 8.62378 -71.66272 278 ft 0 kts 327°
2026-04-26 00:36 8.62389 -71.66295 278 ft 7 kts 273°
2026-04-26 00:36 8.62424 -71.66327 278 ft 9 kts 353°
2026-04-26 00:36 8.62491 -71.66336 279 ft 12 kts 352°
2026-04-26 00:36 8.62546 -71.66275 279 ft 11 kts
2026-04-26 00:37 8.62552 -71.66291 279 ft 0 kts 261°
2026-04-26 00:37 8.62547 -71.66319 279 ft 20 kts 259°
2026-04-26 00:38 8.62507 -71.66612 278 ft 62 kts 262°
2026-04-26 00:38 8.62430 -71.67138 315 ft 84 kts 262°
2026-04-26 00:38 8.62344 -71.67739 414 ft 89 kts 262°
2026-04-26 00:38 8.62251 -71.68383 540 ft 96 kts 262°
2026-04-26 00:39 8.62302 -71.69045 746 ft 98 kts 298°
2026-04-26 00:39 8.62869 -71.69449 851 ft 109 kts 349°
2026-04-26 00:39 8.63648 -71.69354 1056 ft 117 kts 28°
2026-04-26 00:39 8.64317 -71.68869 1280 ft 121 kts 36°
2026-04-26 00:40 8.65022 -71.68391 1503 ft 123 kts 34°
2026-04-26 00:40 8.65727 -71.67894 1730 ft 124 kts 36°
2026-04-26 00:40 8.66437 -71.67387 1957 ft 125 kts 38°
2026-04-26 00:40 8.67098 -71.66813 2186 ft 126 kts 42°
2026-04-26 00:41 8.67751 -71.66220 2411 ft 126 kts 43°
2026-04-26 00:41 8.68399 -71.65617 2653 ft 126 kts 45°
2026-04-26 00:41 8.69018 -71.65001 2899 ft 124 kts 44°
2026-04-26 00:41 8.69639 -71.64396 3096 ft 127 kts 44°
2026-04-26 00:42 8.70286 -71.63765 3301 ft 130 kts 45°
2026-04-26 00:42 8.70945 -71.63123 3506 ft 132 kts 45°
2026-04-26 00:42 8.71607 -71.62473 3714 ft 133 kts 45°
2026-04-26 00:42 8.72270 -71.61824 3921 ft 132 kts 45°
2026-04-26 00:43 8.72927 -71.61186 4150 ft 130 kts 44°
2026-04-26 00:43 8.73580 -71.60552 4362 ft 130 kts 45°
2026-04-26 00:43 8.74220 -71.59914 4588 ft 129 kts 46°
2026-04-26 00:43 8.74848 -71.59273 4813 ft 128 kts 47°
2026-04-26 00:44 8.75422 -71.58589 5033 ft 127 kts 53°
2026-04-26 00:44 8.75971 -71.57894 5255 ft 126 kts 52°
2026-04-26 00:44 8.76521 -71.57214 5475 ft 125 kts 51°
2026-04-26 00:44 8.77070 -71.56539 5676 ft 125 kts 52°
2026-04-26 00:45 8.77626 -71.55852 5862 ft 127 kts 51°
2026-04-26 00:45 8.78002 -71.55390 5979 ft 130 kts 51°
2026-04-26 00:45 8.78773 -71.54438 6219 ft 132 kts 51°
2026-04-26 00:45 8.79359 -71.53719 6399 ft 133 kts 51°
2026-04-26 00:46 8.79947 -71.52999 6575 ft 132 kts 51°
2026-04-26 00:46 8.80524 -71.52293 6748 ft 131 kts 51°
2026-04-26 00:46 8.81108 -71.51578 6924 ft 132 kts 51°
2026-04-26 00:46 8.81697 -71.50852 7101 ft 133 kts 51°
2026-04-26 00:47 8.82290 -71.50128 7277 ft 134 kts 51°
2026-04-26 00:47 8.82885 -71.49399 7453 ft 135 kts 51°
2026-04-26 00:47 8.83480 -71.48670 7626 ft 134 kts 51°
2026-04-26 00:47 8.84071 -71.47941 7803 ft 135 kts 51°
2026-04-26 00:48 8.84667 -71.47208 7980 ft 135 kts 51°
2026-04-26 00:48 8.85265 -71.46473 8155 ft 135 kts 51°
2026-04-26 00:48 8.85857 -71.45754 8326 ft 134 kts 51°
2026-04-26 00:48 8.86451 -71.45020 8453 ft 135 kts 52°
2026-04-26 00:49 8.87046 -71.44286 8565 ft 135 kts 51°
2026-04-26 00:49 8.87649 -71.43544 8683 ft 138 kts 51°
2026-04-26 00:49 8.88265 -71.42788 8762 ft 139 kts 51°
2026-04-26 00:49 8.88884 -71.42026 8841 ft 142 kts 52°
2026-04-26 00:50 8.89514 -71.41250 8920 ft 144 kts 51°
2026-04-26 00:50 8.90154 -71.40472 8991 ft 145 kts 51°
2026-04-26 00:50 8.90803 -71.39669 8998 ft 149 kts 52°
2026-04-26 00:50 8.91468 -71.38846 8999 ft 153 kts 52°
2026-04-26 00:51 8.92147 -71.38012 8999 ft 154 kts 52°
2026-04-26 00:51 8.92831 -71.37170 8999 ft 155 kts 51°
2026-04-26 00:51 8.93522 -71.36324 8999 ft 156 kts 51°
2026-04-26 00:51 8.94203 -71.35480 9001 ft 158 kts 51°
2026-04-26 00:52 8.94907 -71.34623 9002 ft 158 kts 51°
2026-04-26 00:52 8.95615 -71.33762 9009 ft 159 kts 51°
2026-04-26 00:52 8.96320 -71.32896 9004 ft 159 kts 51°
2026-04-26 00:52 8.97024 -71.32026 9017 ft 160 kts 51°
2026-04-26 00:53 8.97732 -71.31158 9006 ft 160 kts 51°
2026-04-26 00:53 8.98441 -71.30286 9014 ft 161 kts 51°
2026-04-26 00:53 8.99151 -71.29413 9006 ft 161 kts 51°
2026-04-26 00:53 8.99861 -71.28541 9004 ft 160 kts 51°
2026-04-26 00:54 9.00339 -71.27954 9004 ft 160 kts 51°
2026-04-26 00:54 9.01037 -71.27095 9003 ft 160 kts 51°
2026-04-26 00:54 9.01746 -71.26223 9004 ft 161 kts 51°
2026-04-26 00:54 9.02457 -71.25348 9012 ft 161 kts 51°
2026-04-26 00:55 9.03170 -71.24472 9010 ft 161 kts 51°
2026-04-26 00:55 9.03884 -71.23590 9006 ft 164 kts 51°
2026-04-26 00:55 9.04607 -71.22708 9006 ft 163 kts 51°
2026-04-26 00:55 9.05330 -71.21822 9006 ft 163 kts 51°
2026-04-26 00:56 9.06050 -71.20939 9005 ft 162 kts 51°
2026-04-26 00:56 9.06762 -71.20060 9011 ft 161 kts 51°
2026-04-26 00:56 9.07474 -71.19181 9004 ft 161 kts 51°
2026-04-26 00:56 9.08182 -71.18312 9001 ft 159 kts 51°
2026-04-26 00:57 9.08876 -71.17457 9000 ft 159 kts 51°
2026-04-26 00:57 9.09580 -71.16591 8998 ft 159 kts 51°
2026-04-26 00:57 9.10284 -71.15725 8998 ft 159 kts 51°
2026-04-26 00:57 9.10987 -71.14860 8997 ft 159 kts 51°
2026-04-26 00:58 9.11692 -71.13993 8998 ft 159 kts 51°
2026-04-26 00:58 9.12396 -71.13126 8998 ft 159 kts 51°
2026-04-26 00:58 9.13100 -71.12259 8999 ft 159 kts 51°
2026-04-26 00:58 9.13804 -71.11392 8997 ft 160 kts 51°
2026-04-26 00:59 9.14511 -71.10523 8997 ft 160 kts 51°
2026-04-26 00:59 9.15218 -71.09653 8997 ft 160 kts 51°
2026-04-26 00:59 9.15925 -71.08782 8999 ft 160 kts 51°
2026-04-26 00:59 9.16632 -71.07911 8999 ft 160 kts 51°
2026-04-26 01:00 9.17340 -71.07039 8999 ft 161 kts 51°
2026-04-26 01:00 9.18051 -71.06164 8999 ft 161 kts 51°
2026-04-26 01:00 9.18761 -71.05289 9000 ft 161 kts 51°
2026-04-26 01:00 9.19472 -71.04413 8999 ft 161 kts 51°
2026-04-26 01:01 9.20182 -71.03538 8999 ft 161 kts 51°
2026-04-26 01:01 9.20892 -71.02664 8999 ft 161 kts 51°
2026-04-26 01:01 9.21591 -71.01802 9002 ft 160 kts 51°
2026-04-26 01:01 9.22301 -71.00928 9001 ft 160 kts 51°
2026-04-26 01:02 9.23008 -71.00056 8999 ft 160 kts 51°
2026-04-26 01:02 9.23718 -70.99182 8999 ft 161 kts 51°
2026-04-26 01:02 9.24428 -70.98307 8998 ft 161 kts 51°
2026-04-26 01:02 9.25136 -70.97433 8999 ft 161 kts 51°
2026-04-26 01:03 9.25847 -70.96559 8999 ft 160 kts 51°
2026-04-26 01:03 9.26554 -70.95686 8999 ft 161 kts 51°
2026-04-26 01:03 9.27266 -70.94810 8999 ft 161 kts 51°
2026-04-26 01:03 9.27977 -70.93932 9000 ft 161 kts 51°
2026-04-26 01:04 9.28689 -70.93053 9000 ft 162 kts 51°
2026-04-26 01:04 9.29403 -70.92174 9000 ft 162 kts 51°
2026-04-26 01:04 9.30115 -70.91296 9000 ft 161 kts 51°
2026-04-26 01:04 9.30828 -70.90417 9000 ft 161 kts 51°
2026-04-26 01:05 9.31529 -70.89552 8999 ft 161 kts 51°
2026-04-26 01:05 9.32245 -70.88671 9001 ft 160 kts 51°
2026-04-26 01:05 9.32942 -70.87809 9002 ft 160 kts 51°
2026-04-26 01:05 9.33649 -70.86940 9012 ft 160 kts 51°
2026-04-26 01:06 9.34354 -70.86069 9006 ft 159 kts 52°
2026-04-26 01:06 9.35058 -70.85200 9013 ft 159 kts 51°
2026-04-26 01:06 9.35763 -70.84330 9004 ft 159 kts 51°
2026-04-26 01:06 9.36465 -70.83464 9014 ft 160 kts 52°
2026-04-26 01:07 9.37170 -70.82594 9016 ft 160 kts 51°
2026-04-26 01:07 9.37874 -70.81726 9017 ft 159 kts 51°
2026-04-26 01:07 9.38579 -70.80855 9018 ft 161 kts 52°
2026-04-26 01:07 9.39286 -70.79979 9010 ft 160 kts 52°
2026-04-26 01:08 9.39996 -70.79106 9005 ft 160 kts 51°
2026-04-26 01:08 9.40702 -70.78235 9004 ft 160 kts 52°
2026-04-26 01:08 9.41397 -70.77377 9012 ft 159 kts 52°
2026-04-26 01:08 9.42102 -70.76507 9004 ft 160 kts 52°
2026-04-26 01:09 9.42806 -70.75637 9003 ft 160 kts 52°
2026-04-26 01:09 9.43512 -70.74766 9004 ft 160 kts 52°
2026-04-26 01:09 9.44217 -70.73895 9009 ft 160 kts 52°
2026-04-26 01:09 9.44923 -70.73023 9009 ft 160 kts 52°
2026-04-26 01:10 9.45629 -70.72149 9004 ft 160 kts 52°
2026-04-26 01:10 9.46336 -70.71279 9016 ft 160 kts 52°
2026-04-26 01:10 9.47042 -70.70407 9003 ft 160 kts 52°
2026-04-26 01:10 9.47748 -70.69535 9006 ft 160 kts 52°
2026-04-26 01:11 9.48454 -70.68663 9003 ft 160 kts 52°
2026-04-26 01:11 9.49159 -70.67790 9001 ft 160 kts 52°
2026-04-26 01:11 9.49864 -70.66920 9002 ft 160 kts 52°
2026-04-26 01:11 9.50561 -70.66059 8997 ft 160 kts 52°
2026-04-26 01:12 9.51266 -70.65186 8998 ft 160 kts 53°
2026-04-26 01:12 9.51729 -70.64184 8997 ft 158 kts 77°
2026-04-26 01:12 9.52005 -70.63105 8998 ft 158 kts 75°
2026-04-26 01:12 9.52308 -70.62033 8999 ft 158 kts 75°
2026-04-26 01:13 9.52607 -70.60957 9000 ft 158 kts 75°
2026-04-26 01:13 9.52903 -70.59886 9002 ft 158 kts 75°
2026-04-26 01:13 9.53195 -70.58810 9003 ft 158 kts 75°
2026-04-26 01:13 9.53493 -70.57737 9002 ft 160 kts 75°
2026-04-26 01:14 9.53797 -70.56655 9013 ft 159 kts 75°
2026-04-26 01:14 9.54074 -70.55624 8917 ft 142 kts 76°
2026-04-26 01:14 9.54243 -70.54702 8455 ft 128 kts 93°
2026-04-26 01:14 9.54000 -70.53854 7958 ft 122 kts 120°
2026-04-26 01:15 9.53444 -70.53227 7464 ft 120 kts 144°
2026-04-26 01:15 9.52681 -70.52904 6970 ft 119 kts 169°
2026-04-26 01:15 9.51867 -70.52938 6471 ft 119 kts 194°
2026-04-26 01:15 9.51079 -70.53198 5990 ft 119 kts 197°
2026-04-26 01:16 9.50290 -70.53442 5498 ft 118 kts 196°
2026-04-26 01:16 9.49503 -70.53685 5004 ft 118 kts 196°
2026-04-26 01:16 9.48722 -70.53925 4512 ft 117 kts 196°
2026-04-26 01:16 9.47943 -70.54165 4039 ft 116 kts 197°
2026-04-26 01:17 9.47264 -70.54373 3978 ft 89 kts 195°
2026-04-26 01:17 9.46713 -70.54534 3896 ft 82 kts 193°
2026-04-26 01:17 9.46189 -70.54681 3890 ft 83 kts 193°
2026-04-26 01:17 9.45537 -70.54890 3464 ft 110 kts 198°
2026-04-26 01:18 9.44789 -70.55135 3048 ft 113 kts 197°
2026-04-26 01:18 9.44110 -70.55344 2997 ft 91 kts 195°
2026-04-26 01:18 9.43550 -70.55510 2982 ft 77 kts 194°
2026-04-26 01:18 9.43042 -70.55654 2995 ft 78 kts 192°
2026-04-26 01:19 9.42487 -70.55823 3002 ft 88 kts 195°
2026-04-26 01:19 9.41874 -70.56016 3002 ft 95 kts 195°
2026-04-26 01:19 9.41225 -70.56219 3004 ft 99 kts 195°
2026-04-26 01:19 9.40555 -70.56425 2959 ft 103 kts 195°
2026-04-26 01:20 9.39839 -70.56645 2844 ft 112 kts 195°
2026-04-26 01:20 9.39072 -70.56883 2694 ft 118 kts 197°
2026-04-26 01:20 9.38279 -70.57128 2527 ft 119 kts 197°
2026-04-26 01:20 9.37517 -70.57366 2367 ft 110 kts 197°
2026-04-26 01:21 9.36801 -70.57586 2216 ft 105 kts 197°
2026-04-26 01:21 9.36131 -70.57795 2068 ft 95 kts 197°
2026-04-26 01:21 9.35535 -70.57983 1931 ft 84 kts 199°
2026-04-26 01:21 9.34997 -70.58150 1828 ft 78 kts 196°
2026-04-26 01:22 9.34530 -70.58294 1837 ft 62 kts 198°
2026-04-26 01:22 9.34221 -70.58391 1863 ft 42 kts 197°
2026-04-26 01:22 9.34009 -70.58460 1884 ft 15 kts 212°
2026-04-26 01:22 9.33990 -70.58522 1887 ft 0 kts 289°